This demonstration page uses our WeatherBlox Daily Observations layout. Learn more.

Left ArrowRight Arrow

41.55636, -103.73856

Hourly Observations for June 21, 2019

Temp ( °F °C ) Dew Point ( °F °C ) Humidity (%) Winds ( mph kmh ) Pressure ( in mb ) Visibility ( mi km ) Precip ( " mm )
12:58 am 00:58 Mostly Cloudy 69 20.3 46 7.7 44 44 S 22 35 29.61 1003 10 16 N/A
1:58 am 01:58 Mostly Cloudy 65 18.6 49 9.5 56 56 S 20 31 29.60 1002 10 16 N/A
2:58 am 02:58 Mostly Cloudy 63 17 50 10.2 64 64 S 17 28 29.63 1003 10 16 N/A
4:58 am 04:58 Windy with Rain Showers Likely 60 15.6 52 11 74 74 NW 21 33 29.71 1006 10 16 N/A
5:58 am 05:58 Windy with Rain Showers Likely 55 12.7 47 8.5 76 76 NNW 21 33 29.69 1006 10 16 0.01 0.25
6:58 am 06:58 Mostly Cloudy 50 10.1 46 7.8 86 86 NW 15 24 29.70 1006 10 16 N/A
7:58 am 07:58 Partly Cloudy 50 10.2 47 8.1 87 87 W 7 11 29.69 1006 10 16 N/A
8:58 am 08:58 Partly Cloudy 51 10.8 44 6.4 74 74 WNW 10 17 29.66 1004 10 16 N/A
9:58 am 09:58 Mostly Cloudy 52 11.3 42 5.6 68 68 WNW 16 26 29.68 1005 10 16 N/A
10:58 am 10:58 Mostly Cloudy 53 11.5 39 4.1 61 61 NW 17 28 29.66 1005 10 16 N/A
11:58 am 11:58 Mostly Cloudy 53 11.7 38 3.1 56 56 WNW 13 20 29.69 1006 10 16 N/A
12:58 pm 12:58 Mostly Cloudy 53 11.7 37 3 55 55 NNW 9 15 29.71 1006 10 16 N/A
1:58 pm 13:58 Mostly Cloudy with Light Rain 53 11.7 38 3.5 57 57 N 15 24 29.75 1008 10 16 N/A
2:58 pm 14:58 Mostly Cloudy with Light Showers 49 9.4 42 5.4 76 76 NW 18 30 29.81 1010 10 16 0.02 0.51
3:58 pm 15:58 Cloudy with Rain 46 7.8 43 6.3 90 90 NW 14 22 29.83 1010 5 8 0.09 2.29
4:58 pm 16:58 Cloudy with Light Rain 48 8.9 44 6.6 86 86 WNW 7 11 29.83 1010 10 16 0.08 2.03
7:58 pm 19:58 Mostly Cloudy with Light Rain 49 9.5 44 6.5 82 82 WNW 14 22 29.92 1013 10 16 0.01 0.25
8:58 pm 20:58 Cloudy 50 10.1 44 6.5 79 79 WNW 8 13 29.91 1013 10 16 0.01 0.25
9:56 pm 21:56 Mostly Cloudy 52 11.1 45 7 76 76 WNW 6 9 29.91 1013 10 16 N/A
10:58 pm 22:58 Mostly Cloudy 55 12.6 42 5.8 64 64 NW 3 6 29.91 1013 10 16 N/A
11:58 pm 23:58 Cloudy with Light Showers 54 12.1 43 6.1 67 67 W 3 6 29.92 1013 10 16 N/A

Powered by AerisWeather